This is the latest recevied weather packets stored in our database for station/object WX7FGZ-5. If no packets are shown the sender has not sent any weather packets the latest 10 day(s).
| Time | Temp. | Humidity | Pressure | Rain* | Wind** | Luminosity | Snow |
|---|---|---|---|---|---|---|---|
| 1777794183 | 5.56° C | 46% | 1024.7 hPa | 0 mm | - | 0 W/m² | - |
| 1777793588 | 6.11° C | 45% | 1025 hPa | 0 mm | - | 0 W/m² | - |
| 1777792986 | 6.67° C | 44% | 1024.9 hPa | 0 mm | - | 0 W/m² | - |
| 1777792689 | 7.22° C | 44% | 1024.9 hPa | 0 mm | - | 0 W/m² | - |
| 1777791784 | 6.67° C | 45% | 1024.8 hPa | 0 mm | - | 0 W/m² | - |
| 1777791485 | 6.67° C | 45% | 1024.8 hPa | 0 mm | - | 0 W/m² | - |
| 1777791185 | 7.22° C | 44% | 1024.9 hPa | 0 mm | - | 0 W/m² | - |
| 1777790584 | 7.78° C | 42% | 1024.8 hPa | 0 mm | - | 0 W/m² | - |
| 1777790284 | 7.78° C | 42% | 1024.8 hPa | 0 mm | - | 0 W/m² | - |
| 1777789384 | 8.33° C | 39% | 1024.8 hPa | 0 mm | - | 0 W/m² | - |
| 1777788791 | 8.89° C | 39% | 1024.8 hPa | 0 mm | - | 0 W/m² | - |
| 1777788196 | 9.44° C | 39% | 1024.9 hPa | 0 mm | - | 0 W/m² | - |
| 1777786683 | 8.89° C | 38% | 1024.7 hPa | 0 mm | - | 0 W/m² | - |
| 1777785784 | 8.89° C | 39% | 1024.6 hPa | 0 mm | - | 0 W/m² | - |
| 1777785486 | 9.44° C | 37% | 1024.6 hPa | 0 mm | - | 0 W/m² | - |
| 1777785185 | 10.56° C | 35% | 1024.6 hPa | 0 mm | - | 0 W/m² | - |
| 1777784583 | 11.11° C | 32% | 1024.4 hPa | 0 mm | - | 0 W/m² | - |
| 1777784283 | 11.11° C | 32% | 1024.4 hPa | 0 mm | - | 0 W/m² | - |
| 1777783023 | 11.11° C | 33% | 1024.2 hPa | 0 mm | - | 0 W/m² | - |
| 1777782723 | 11.67° C | 32% | 1024.1 hPa | 0 mm | - | 0 W/m² | - |
| 1777782423 | 11.67° C | 31% | 1024.1 hPa | 0 mm | - | 0 W/m² | - |
| 1777782122 | 11.67° C | 33% | 1024.1 hPa | 0 mm | - | 0 W/m² | - |
| 1777781523 | 12.22° C | 30% | 1023.9 hPa | 0 mm | - | 0 W/m² | - |
| 1777781223 | 12.22° C | 30% | 1023.9 hPa | 0 mm | - | 0 W/m² | - |
| 1777778526 | 12.78° C | 33% | 1023.3 hPa | 0 mm | - | 0 W/m² | - |
* Rain latest hour (hover to see other rain measurements)
** Current wind speed in m/s (hover to see current wind gust speed)